Overview Statistics Trail Chart Weather Telemetry Raw packets
 

This is the latest recevied weather packets stored in our database for station/object KB0BS-13. If no packets are shown the sender has not sent any weather packets the latest 10 day(s).

<< 66 67 68 69 70 71 72 >>
Time Temp. Humidity Pressure Rain* Wind** Luminosity Snow
1777235551 16.11° C 53% 1021.9 hPa 0 mm - 414 W/m² -
1777235247 16.11° C 52% 1021.9 hPa 0 mm - 403 W/m² -
1777234943 15.56° C 54% 1021.9 hPa 0 mm - 414 W/m² -
1777234640 16.11° C 54% 1022.2 hPa 0 mm - 412 W/m² -
1777234334 15.56° C 54% 1022.2 hPa 0 mm - 434 W/m² -
1777234031 16.11° C 53% 1022.1 hPa 0 mm - 468 W/m² -
1777233727 15.56° C 56% 1022.1 hPa 0 mm - 480 W/m² -
1777233422 15.56° C 54% 1021.9 hPa 0 mm - 472 W/m² -
1777233117 15.56° C 52% 1022.2 hPa 0 mm - 516 W/m² -
1777232814 15.56° C 54% 1022.1 hPa 0 mm - 523 W/m² -
1777232512 15.56° C 54% 1022 hPa 0 mm - 533 W/m² -
1777232210 15.56° C 54% 1022.3 hPa 0 mm - 546 W/m² -
1777231906 16.11° C 56% 1022.1 hPa 0 mm - 589 W/m² -
1777231604 15.56° C 52% 1022.1 hPa 0 mm - 599 W/m² -
1777231300 16.11° C 53% 1022.4 hPa 0 mm - 569 W/m² -
1777230995 15.56° C 53% 1022.3 hPa 0 mm - 597 W/m² -
1777230692 15° C 54% 1022.3 hPa 0 mm - 564 W/m² -
1777230387 15° C 55% 1022.2 hPa 0 mm - 504 W/m² -
1777230083 15° C 56% 1022.1 hPa 0 mm - 466 W/m² -
1777229781 15° C 56% 1022.3 hPa 0 mm - 495 W/m² -
1777229477 15° C 57% 1022.2 hPa 0 mm - 577 W/m² -
1777229174 15° C 56% 1022.2 hPa 0 mm - 602 W/m² -
1777228871 15° C 60% 1022.3 hPa 0 mm - 614 W/m² -
1777228567 15° C 60% 1022.3 hPa 0 mm - 600 W/m² -
1777228263 15° C 59% 1022.3 hPa 0 mm - 599 W/m² -

* Rain latest hour (hover to see other rain measurements)
** Current wind speed in m/s (hover to see current wind gust speed)